sat.trackr.live / text

‹ back to catalog

STARLINK-5717

NORAD 55618 · 2023-020BB

PAYLOAD ACTIVE UNKNOWN

§ Identity

Operator
Country
US
Launch date
2023-02-12
Launch site
AFETR
Launch vehicle
Mass (kg)
RCS (m²)

Purposes: comms

External: N2YO · Heavens-Above · Gunter

§ Orbital elements

Epoch: 2026-09-20T21:16:08.743584Z

Period
94.27 min
Inclination
43.0034°
Eccentricity
0.0001253
Mean motion
15.27582055 rev/d
Perigee alt
482.2 km
Apogee alt
483.9 km
Semi-major
6,861.2 km
B*
2.0366e-5
RAAN
331.7321°
Arg perigee
272.6052°
Mean anomaly
87.4657°
Rev number
19,889

§ Raw data

STARLINK-57171 55618U 23020BB  26263.88621231  .00000298  00000+0  20366-4 0  99912 55618  43.0034 331.7321 0001253 272.6052  87.4657 15.27582055198898

JSON: /api/v1/satellites/55618 · /tle

For live sub-satellite position, see the globe view (requires WebGL).

§ Visibility from observer

Set your observer location to see the next 7 days of passes ≥ 10°. The values pass through the URL so the page stays shareable.

No JS? Fill the form by hand. The geolocation button needs JavaScript.